[[{"header":{"parameterUnit":"m.s-1","parameterCategory":1,"la1":30.2992,"la2":30.254,"lo1":-89.0895,"lo2":-89.0443,"dy":0.0025,"dx":0.0025,"nx":19,"ny":19,"refTime":"2026-05-14T03:00:00:Z","depth":0,"parameterNumber":2,"parameterNumberName":"U-component_of_WINDS"},"data":[0,0,0,1.4969,1.4971,1.508,1.5081,1.5221,1.5223,0,0,0,0,0,0,0,0,0,0,0,1.4934,1.4935,1.4968,1.4971,1.508,1.5081,1.5221,1.5223,0,0,0,0,0,0,0,0,0,0,0,1.4934,1.4935,1.4936,1.4971,1.508,1.5081,1.5221,1.5139,0,0,0,0,0,0,0,0,0,0,1.5033,1.4998,1.4934,1.4936,1.4972,1.508,1.5081,1.5135,1.5144,1.5171,0,1.5193,0,1.521,1.5232,1.5232,0,0,0,1.4973,1.499,1.5022,1.4936,1.4973,1.508,1.5032,1.514,1.515,1.5183,1.5195,1.52,1.5212,1.5233,1.5233,1.5381,1.5381,0,0,1.4967,1.4953,1.5014,1.5028,1.5008,1.5028,1.5035,1.5146,1.5159,1.5195,1.5204,1.5214,1.5234,1.5235,1.538,1.5381,0,0,0,1.4948,1.4949,1.4977,1.5022,1.5042,1.5031,1.5039,1.5154,1.5164,1.5205,1.5216,1.5234,1.5236,1.5379,1.538,1.5396,0,0,0,1.4945,1.4938,1.4975,1.4967,1.5039,1.5098,1.5044,1.5156,1.5169,1.5215,1.5234,1.5237,1.5379,1.538,1.5394,1.5406,0,0,0,1.4928,1.4936,1.495,1.4966,1.5012,1.5097,1.5114,1.5159,1.5176,1.5232,1.5238,1.5378,1.538,1.5392,1.5403,1.5442,0,0,0,1.4906,1.4962,1.495,1.5018,1.5011,1.5104,1.5113,1.5184,1.5234,1.5235,1.5379,1.538,1.5392,1.5402,1.544,1.5473,1.5485,0,0,1.4969,1.4969,1.501,1.5003,1.5095,1.5089,1.5184,1.5244,1.5263,1.5341,1.5345,1.5394,1.5403,1.5442,1.5553,1.5562,0,0,0,1.5026,1.5055,1.5083,1.5129,1.5175,1.5217,1.5264,1.5287,1.5353,1.5299,1.5418,1.5424,1.5447,1.5464,1.5472,1.5494,1.5386,1.5386,1.5386,1.5096,1.5116,1.5187,1.5221,1.5266,1.5315,1.5355,1.5394,1.5402,1.543,1.5454,1.5518,1.5537,1.5543,1.5566,1.5471,1.5471,1.5471,1.5471,1.5192,1.5238,1.5248,1.532,1.5343,1.5404,1.5454,1.5458,1.5521,1.5501,1.5523,1.5501,1.5552,1.5574,1.5473,1.5472,1.5472,1.5472,1.5472,1.5241,1.5267,1.5293,1.5364,1.5416,1.545,1.5511,1.5529,1.5548,1.5569,1.5598,1.5598,1.5602,1.5581,1.5581,1.5581,1.5582,1.5582,1.5582,1.5283,1.5312,1.5359,1.5414,1.5447,1.5494,1.5545,1.5579,1.5623,1.5632,1.5633,1.564,1.5552,1.5531,1.5586,1.5585,1.5584,1.5584,1.5584,1.5376,1.5358,1.5431,1.5464,1.5533,1.5586,1.5608,1.5678,1.5709,1.5739,1.5742,1.5673,1.5675,1.5669,1.5652,1.5735,1.5735,1.5735,1.5735,1.5419,1.5422,1.5502,1.5555,1.5609,1.5638,1.5723,1.5765,1.5805,1.5827,1.5817,1.5795,1.5788,1.5795,1.5786,1.5771,1.5882,1.5882,1.5882,1.5479,1.5488,1.5556,1.5593,1.5648,1.5696,1.5778,1.5842,1.5884,1.5889,1.5845,1.5839,1.5804,1.579,1.5795,1.5781,1.5753,0,0]},{"header":{"parameterUnit":"m.s-1","parameterCategory":1,"la1":30.2992,"la2":30.254,"lo1":-89.0895,"lo2":-89.0443,"dy":0.0025,"dx":0.0025,"nx":19,"ny":19,"refTime":"2026-05-14T03:00:00:Z","depth":0,"parameterNumber":3,"parameterNumberName":"V-component_of_WINDS"},"data":[0,0,0,-2.2002,-2.2,-2.1923,-2.1923,-2.182,-2.1819,0,0,0,0,0,0,0,0,0,0,0,-2.2027,-2.2026,-2.2002,-2.2,-2.1923,-2.1923,-2.182,-2.1819,0,0,0,0,0,0,0,0,0,0,0,-2.2027,-2.2026,-2.2026,-2.2,-2.1923,-2.1923,-2.182,-2.1879,0,0,0,0,0,0,0,0,0,0,-2.1954,-2.198,-2.2026,-2.2026,-2.1999,-2.1923,-2.1923,-2.1882,-2.1875,-2.1855,0,-2.1841,0,-2.1829,-2.1812,-2.1812,0,0,0,-2.1997,-2.1986,-2.1963,-2.2025,-2.1999,-2.1923,-2.1957,-2.1878,-2.1871,-2.1846,-2.1839,-2.1835,-2.1827,-2.1812,-2.1811,-2.1708,-2.1708,0,0,-2.2002,-2.2013,-2.1969,-2.1959,-2.1976,-2.196,-2.1955,-2.1874,-2.1865,-2.1839,-2.1833,-2.1825,-2.1811,-2.181,-2.1708,-2.1708,0,0,0,-2.2016,-2.2016,-2.1996,-2.1963,-2.195,-2.1958,-2.1952,-2.1869,-2.1862,-2.1832,-2.1824,-2.1811,-2.1809,-2.1709,-2.1708,-2.1701,0,0,0,-2.2018,-2.2024,-2.1998,-2.2004,-2.1951,-2.1909,-2.1949,-2.1867,-2.1858,-2.1824,-2.181,-2.1808,-2.1709,-2.1708,-2.1702,-2.1694,0,0,0,-2.2031,-2.2026,-2.2016,-2.2005,-2.1972,-2.1911,-2.1898,-2.1865,-2.1853,-2.1812,-2.1808,-2.1709,-2.1709,-2.1703,-2.1696,-2.1668,0,0,0,-2.2047,-2.201,-2.2016,-2.1971,-2.1973,-2.1909,-2.1899,-2.185,-2.1814,-2.181,-2.1709,-2.1708,-2.1703,-2.1697,-2.1669,-2.1645,-2.1637,0,0,-2.2006,-2.2006,-2.1978,-2.1981,-2.1919,-2.1919,-2.1854,-2.1809,-2.1793,-2.1736,-2.1733,-2.1701,-2.1696,-2.1668,-2.1593,-2.1587,0,0,0,-2.1969,-2.1949,-2.193,-2.1898,-2.1865,-2.1834,-2.1799,-2.1781,-2.1733,-2.1768,-2.1685,-2.1681,-2.1664,-2.1652,-2.1646,-2.1629,-2.1704,-2.1704,-2.1704,-2.1926,-2.191,-2.1863,-2.1836,-2.1805,-2.1768,-2.1739,-2.1709,-2.1701,-2.1682,-2.1664,-2.1621,-2.1607,-2.1603,-2.1585,-2.1652,-2.1652,-2.1652,-2.1652,-2.1863,-2.183,-2.1822,-2.1772,-2.1754,-2.171,-2.1672,-2.1667,-2.1621,-2.1634,-2.1618,-2.163,-2.1596,-2.1579,-2.1651,-2.1651,-2.1651,-2.1652,-2.1652,-2.183,-2.1812,-2.1794,-2.1744,-2.1706,-2.1679,-2.1635,-2.162,-2.1605,-2.159,-2.1566,-2.1566,-2.1561,-2.158,-2.158,-2.158,-2.158,-2.158,-2.158,-2.1803,-2.1782,-2.1749,-2.171,-2.1686,-2.1651,-2.1613,-2.1587,-2.1553,-2.1545,-2.1544,-2.1535,-2.1598,-2.1612,-2.1577,-2.1578,-2.1578,-2.1578,-2.1578,-2.1739,-2.1751,-2.17,-2.1676,-2.1626,-2.1587,-2.1569,-2.1516,-2.1493,-2.147,-2.1464,-2.1515,-2.1512,-2.1516,-2.1527,-2.1472,-2.1472,-2.1472,-2.1472,-2.1709,-2.1707,-2.165,-2.1611,-2.1572,-2.155,-2.1486,-2.1454,-2.1422,-2.1404,-2.1411,-2.1425,-2.1431,-2.1424,-2.143,-2.144,-2.1363,-2.1363,-2.1363,-2.1667,-2.166,-2.1612,-2.1584,-2.1544,-2.1507,-2.1446,-2.1397,-2.1363,-2.1358,-2.1389,-2.1394,-2.1417,-2.1427,-2.142,-2.143,-2.1448,0,0]}]]